星链-5180 (STARLINK-5180 )

导读 | 豆包AI

STARLINK-5180是美国SpaceX公司星链星座的一员,于2023年1月19日发射入轨,属于星链第一代V1.5批次卫星。该卫星运行在340-614公里的近地轨道,轨道倾角约53°,重量约295公斤,设计寿命约5年。它配备氪离子推进系统用于轨道维持与避碰,搭载相控阵天线支持Ku/Ka波段通信,部分批次后期型号配备激光星间链路,为全球用户提供低延迟宽带互联网接入服务,是星链全球卫星互联网星座构建的重要组成部分。

基本信息
目录编号:
55318
目录名称:
STARLINK-5180
国际标识:
2023-010BB
轨道中心:
EARTH
卫星名称:
星链-5180
卫星全名:
星链-5180 (STARLINK-5180 )
卫星状态:
在轨 (已飞行1197 天)
发射日期:
2023-01-19 UTC
国别 :
美国 (US)
星等 :
--
轨道信息
数据来源 国际轨道数据
星历时间: 2026-04-30T08:49:33+0800
14小时前
查看轨道信息
半长轴: 6950.191km
偏心率: 0.0003081
轨道倾角: 70.000°
近地点辐角 269.762°
升交点赤经 234.976°
平近点角 90.319°
近地点: 569.912km
远地点: 574.196km
周期: 96.107分钟
每日圈数: 14.983307
详细信息
固有亮度:
5
最大亮度:
2.5
卫星平台:
Starlink v1.5
覆盖范围:
全球
运营商:
太空探索技术公司
运营商所在国:
美国
制造商(研发单位):
太空探索技术公司
制造商所在国:
美国
使用方式:
暂无
卫星简介
星链(Starlink)计划是由太空探索技术公司(SpaceX)提出的一个巨型低轨卫星互联网星座项目,计划在2019年至2024年间在太空搭建由约1.2万颗卫星组成的“星链”网络,其中1584颗将部署在地球上空550千米处的近地轨道,并从2020年开始工作。该卫星仍在工作。
2D轨道图
3D轨道图
轨道高度分析图
轨道倾角分析图
轨道综合分析图
查看轨道综合分析图